[[{"header":{"parameterUnit":"m.s-1","parameterCategory":1,"la1":30.2991,"la2":30.254,"lo1":-89.0895,"lo2":-89.0444,"dx":0.0017,"dy":0.0017,"nx":28,"ny":28,"refTime":"2022-12-24T09:00:00:Z","depth":0,"parameterNumber":2,"parameterNumberName":"U-component_of_WINDS"},"data":[0,0,0,0,0,0,0,0,0,0,0,0,0,0,0,0,0,0,0,0,0,0,0,0,0,0,0,0,0,0,0,0,0,0,0,0,0,0,0,0,0,0,0,0,0,0,0,0,0,0,0,0,0,0,0,0,0,0,1.8231,1.8231,0,1.8227,1.8227,1.8227,1.8211,1.8211,1.8211,1.821,1.8204,1.8204,1.8205,0,0,0,0,0,0,0,0,0,0,0,0,0,1.8225,1.8225,1.8231,1.8231,1.8231,1.8227,1.8227,1.8227,1.8211,1.8211,1.821,1.821,1.8204,1.8204,1.8205,0,0,0,0,0,0,0,0,0,0,0,0,0,1.8225,1.8225,1.8231,1.8223,1.8222,1.8227,1.8227,1.8227,1.8211,1.8211,1.821,1.821,1.8204,1.8204,1.8205,1.8217,0,0,1.8205,1.8205,0,0,0,0,0,0,0,0,1.8225,1.8225,1.8224,1.8224,1.8223,1.8219,1.8223,1.8224,1.8212,1.8215,1.821,1.821,1.821,1.8209,1.821,1.8217,1.8216,1.8205,1.8206,1.8206,1.8206,0,0,0,0,0,0,0,1.8225,1.8225,1.823,1.8224,1.8223,1.8219,1.8219,1.8223,1.8215,1.8215,1.8214,1.8214,1.8209,1.8209,1.8209,1.8216,1.8205,1.8206,1.8206,1.8206,1.8234,1.8235,0,0,0,0,0,0,1.8226,1.8225,1.823,1.823,1.8223,1.822,1.8219,1.8221,1.8215,1.8214,1.8214,1.8213,1.8209,1.8209,1.8209,1.8224,1.8206,1.8206,1.8206,1.8234,1.8234,1.8235,0,0,0,0,0,0,1.8226,1.8227,1.823,1.8227,1.8227,1.822,1.8223,1.8221,1.8222,1.8215,1.8213,1.8216,1.8209,1.8209,1.8215,1.8223,1.8206,1.8206,1.8233,1.8234,1.8235,1.8252,0,0,0,0,0,0,1.8226,1.8227,1.8232,1.8228,1.8228,1.8237,1.8223,1.8221,1.8222,1.8221,1.8216,1.8215,1.8208,1.8215,1.8216,1.8223,1.8206,1.8232,1.8233,1.8234,1.8251,1.8254,1.8256,0,0,0,0,0,1.8226,1.8236,1.8232,1.8233,1.8233,1.8237,1.8237,1.823,1.8223,1.8228,1.8223,1.8215,1.8223,1.8216,1.8216,1.8224,1.8232,1.8233,1.8234,1.825,1.8253,1.8256,0,0,0,0,0,0,1.824,1.8235,1.8231,1.824,1.8239,1.8234,1.824,1.8234,1.8234,1.8233,1.8223,1.8223,1.8231,1.8228,1.8221,1.8236,1.8226,1.8227,1.8237,1.8241,1.8243,1.8243,1.8207,0,0,0,0,0,1.8245,1.8249,1.8244,1.8253,1.8253,1.8247,1.8248,1.8243,1.8241,1.8241,1.8237,1.8236,1.8238,1.8239,1.8241,1.8251,1.825,1.8257,1.8259,1.8261,1.8263,1.8268,1.8271,1.8239,1.8239,1.8239,0,0,1.8254,1.8252,1.8254,1.8256,1.8254,1.8259,1.8246,1.8251,1.8254,1.8241,1.8247,1.8245,1.8243,1.8252,1.8255,1.825,1.8271,1.8263,1.8265,1.8265,1.827,1.8273,1.8276,1.824,1.824,1.824,0,0,1.8272,1.8271,1.8278,1.8277,1.8276,1.8272,1.8274,1.8271,1.8269,1.8275,1.8266,1.827,1.8273,1.8272,1.8272,1.8292,1.8284,1.8293,1.8306,1.8312,1.8314,1.8316,1.8323,1.8326,1.8294,1.8294,1.8294,0,1.8282,1.8289,1.8282,1.8288,1.8289,1.8279,1.8286,1.8286,1.8285,1.8286,1.828,1.8285,1.8283,1.8292,1.8297,1.8297,1.8299,1.8293,1.8314,1.8316,1.8318,1.8325,1.8327,1.8295,1.8295,1.8295,1.8295,0,1.8302,1.8307,1.8313,1.8313,1.8315,1.8321,1.8316,1.8319,1.8314,1.8311,1.8318,1.8315,1.8316,1.8318,1.8313,1.8326,1.8323,1.8316,1.8305,1.8322,1.8328,1.8331,1.8297,1.8296,1.8296,1.8296,0,0,1.8327,1.8326,1.8328,1.8328,1.8327,1.833,1.8337,1.8339,1.8341,1.8342,1.8346,1.8351,1.8345,1.8345,1.834,1.8345,1.8361,1.8337,1.8337,1.8341,1.8376,1.8381,1.8384,1.8356,1.8357,1.8357,1.8376,0,1.8344,1.8355,1.8351,1.8362,1.8366,1.8358,1.8363,1.8363,1.8361,1.8364,1.8361,1.8364,1.8356,1.8356,1.8361,1.8358,1.8368,1.8357,1.836,1.8361,1.836,1.8387,1.8392,1.8409,1.8378,1.8379,1.8379,0,1.8365,1.8367,1.8379,1.8379,1.838,1.8385,1.8387,1.8391,1.8391,1.8388,1.839,1.8384,1.839,1.838,1.8388,1.8381,1.8383,1.8382,1.8382,1.8381,1.837,1.8386,1.8415,1.8417,1.8382,1.8382,1.8382,0,1.8382,1.8388,1.8396,1.8397,1.8396,1.84,1.84,1.84,1.8401,1.8403,1.8404,1.8407,1.8408,1.841,1.8405,1.8398,1.8414,1.8403,1.8412,1.8412,1.8415,1.8414,1.8443,1.8417,1.8417,1.8417,1.8417,0,1.8401,1.8409,1.8404,1.8409,1.8418,1.8412,1.8421,1.842,1.842,1.8424,1.8417,1.8422,1.8415,1.8419,1.8415,1.8423,1.8423,1.8422,1.842,1.8422,1.8422,1.8422,1.842,1.8418,1.8417,1.8417,1.8417,0,1.8421,1.8418,1.8427,1.8426,1.8426,1.8432,1.8431,1.8436,1.8434,1.844,1.8441,1.8437,1.8441,1.8437,1.844,1.8438,1.8448,1.8445,1.8448,1.8447,1.8456,1.8455,1.8485,1.8489,1.8461,1.8461,1.8461,0,1.8433,1.8439,1.8439,1.8442,1.8442,1.8447,1.8449,1.8445,1.8448,1.8449,1.8454,1.8457,1.846,1.8467,1.8465,1.8468,1.8464,1.8475,1.8465,1.8466,1.8464,1.8464,1.8464,1.8476,1.8477,1.8477,1.8477,0,1.8454,1.8453,1.8457,1.8461,1.8464,1.8466,1.8468,1.8471,1.8467,1.847,1.8475,1.8477,1.8482,1.8485,1.8488,1.8487,1.8482,1.8481,1.8483,1.8484,1.8485,1.8484,1.8453,1.848,1.848,1.8479,1.8479,1.8479,1.847,1.8475,1.8476,1.8481,1.8483,1.8485,1.849,1.8489,1.8493,1.8497,1.8494,1.85,1.85,1.8503,1.8504,1.8508,1.8503,1.8506,1.8507,1.8508,1.8509,1.8486,1.8508,1.8508,1.8508,1.8508,1.8508,0,1.8491,1.8492,1.8496,1.85,1.8504,1.85,1.8502,1.8505,1.8511,1.8512,1.8516,1.8521,1.8526,1.8524,1.8528,1.8531,1.8529,1.8532,1.8532,1.8532,1.8513,1.851,1.8535,1.8535,1.8535,1.8534,1.8534,1.8534,1.8502,1.851,1.851,1.8519,1.852,1.8526,1.8528,1.853,1.8531,1.8538,1.8542,1.8542,1.8542,1.8546,1.855,1.8549,1.8551,1.8555,1.8553,1.8536,1.8533,1.853,1.8528,1.8556,1.8556,1.8572,1.8572,1.8572]},{"header":{"parameterUnit":"m.s-1","parameterCategory":1,"la1":30.2991,"la2":30.254,"lo1":-89.0895,"lo2":-89.0444,"dx":0.0017,"dy":0.0017,"nx":28,"ny":28,"refTime":"2022-12-24T09:00:00:Z","depth":0,"parameterNumber":3,"parameterNumberName":"V-component_of_WINDS"},"data":[0,0,0,0,0,0,0,0,0,0,0,0,0,0,0,0,0,0,0,0,0,0,0,0,0,0,0,0,0,0,0,0,0,0,0,0,0,0,0,0,0,0,0,0,0,0,0,0,0,0,0,0,0,0,0,0,0,0,-6.5378,-6.5379,0,-6.5498,-6.5499,-6.5501,-6.5462,-6.546,-6.5457,-6.5455,-6.5573,-6.5578,-6.5584,0,0,0,0,0,0,0,0,0,0,0,0,0,-6.5113,-6.5118,-6.5378,-6.538,-6.5381,-6.5498,-6.5499,-6.5501,-6.5463,-6.546,-6.5457,-6.5454,-6.5571,-6.5578,-6.5584,0,0,0,0,0,0,0,0,0,0,0,0,0,-6.523,-6.512,-6.5378,-6.5376,-6.5377,-6.5497,-6.5499,-6.5501,-6.5463,-6.546,-6.5456,-6.5452,-6.5569,-6.5577,-6.5585,-6.5713,0,0,-6.561,-6.5614,0,0,0,0,0,0,0,0,-6.5223,-6.5239,-6.5375,-6.5377,-6.5378,-6.5461,-6.5449,-6.5572,-6.5464,-6.5431,-6.5455,-6.545,-6.5539,-6.5549,-6.558,-6.5718,-6.5723,-6.5611,-6.5616,-6.562,-6.5622,0,0,0,0,0,0,0,-6.5215,-6.5234,-6.5425,-6.5377,-6.5379,-6.5368,-6.5381,-6.5472,-6.5504,-6.5433,-6.5431,-6.5446,-6.5539,-6.5572,-6.5582,-6.5725,-6.5611,-6.5618,-6.5623,-6.5627,-6.5974,-6.5978,0,0,0,0,0,0,-6.5207,-6.5228,-6.5421,-6.5429,-6.529,-6.5376,-6.539,-6.5438,-6.5503,-6.551,-6.5449,-6.5443,-6.556,-6.5573,-6.5586,-6.5741,-6.562,-6.5627,-6.5632,-6.597,-6.5975,-6.598,0,0,0,0,0,0,-6.5201,-6.5224,-6.5417,-6.5328,-6.5351,-6.5385,-6.5439,-6.5443,-6.5476,-6.5515,-6.552,-6.5477,-6.5557,-6.5575,-6.5682,-6.5744,-6.5631,-6.5639,-6.5965,-6.5972,-6.5978,-6.605,0,0,0,0,0,0,-6.5194,-6.5223,-6.5272,-6.5329,-6.5356,-6.5512,-6.5443,-6.5448,-6.5491,-6.5485,-6.5543,-6.5549,-6.5555,-6.567,-6.569,-6.5753,-6.5645,-6.596,-6.5968,-6.5976,-6.6042,-6.6058,-6.6071,0,0,0,0,0,-6.5184,-6.5286,-6.5275,-6.5298,-6.5419,-6.5515,-6.5531,-6.5538,-6.5496,-6.5546,-6.5571,-6.5547,-6.5734,-6.5681,-6.5704,-6.577,-6.5956,-6.5966,-6.5975,-6.6035,-6.6055,-6.6071,0,0,0,0,0,0,-6.5234,-6.5294,-6.5282,-6.5406,-6.5456,-6.5509,-6.5572,-6.5558,-6.562,-6.5611,-6.5615,-6.5629,-6.5739,-6.5765,-6.5705,-6.5897,-6.5839,-6.5853,-6.5877,-6.5895,-6.591,-6.5901,-6.5652,0,0,0,0,0,-6.526,-6.5334,-6.5382,-6.5486,-6.5513,-6.5538,-6.558,-6.5581,-6.5633,-6.5653,-6.5686,-6.5736,-6.5806,-6.5852,-6.5918,-6.6045,-6.6057,-6.6102,-6.6117,-6.6129,-6.6141,-6.6211,-6.6232,-6.6012,-6.6012,-6.6011,0,0,-6.5313,-6.5355,-6.5401,-6.5498,-6.5537,-6.5613,-6.5556,-6.5639,-6.5695,-6.5665,-6.577,-6.5796,-6.5851,-6.5969,-6.6023,-6.5994,-6.6205,-6.6141,-6.615,-6.6157,-6.6223,-6.6244,-6.6262,-6.6018,-6.6017,-6.6016,0,0,-6.5449,-6.5488,-6.558,-6.5621,-6.5682,-6.5698,-6.5721,-6.5776,-6.5793,-6.5898,-6.5878,-6.5944,-6.6064,-6.6105,-6.6141,-6.6295,-6.6275,-6.6316,-6.6393,-6.646,-6.6478,-6.6493,-6.6548,-6.6568,-6.6328,-6.6328,-6.6328,0,-6.5507,-6.5622,-6.5629,-6.5714,-6.5757,-6.5736,-6.5829,-6.5867,-6.5946,-6.5976,-6.5943,-6.6095,-6.613,-6.6258,-6.6296,-6.6326,-6.6351,-6.6309,-6.6475,-6.6491,-6.6505,-6.6557,-6.6578,-6.6333,-6.6332,-6.6332,-6.6331,0,-6.5691,-6.5771,-6.5838,-6.5917,-6.5967,-6.6056,-6.6075,-6.6125,-6.6122,-6.6141,-6.6248,-6.6291,-6.6366,-6.6396,-6.6393,-6.6524,-6.6504,-6.6474,-6.6414,-6.6531,-6.658,-6.66,-6.634,-6.6338,-6.6337,-6.6335,0,0,-6.5861,-6.5944,-6.5968,-6.6004,-6.607,-6.6132,-6.6219,-6.6294,-6.6337,-6.6392,-6.6465,-6.6568,-6.654,-6.6582,-6.6583,-6.6643,-6.6762,-6.6604,-6.6606,-6.6633,-6.6909,-6.6932,-6.6956,-6.6749,-6.6753,-6.6756,-6.6904,0,-6.6004,-6.6159,-6.6168,-6.6309,-6.6383,-6.6364,-6.644,-6.6488,-6.6509,-6.6574,-6.6596,-6.6669,-6.6627,-6.6652,-6.671,-6.6735,-6.6817,-6.6724,-6.6816,-6.682,-6.6804,-6.6981,-6.7006,-6.7144,-6.6924,-6.6927,-6.6929,0,-6.619,-6.6253,-6.6402,-6.6458,-6.649,-6.6558,-6.6628,-6.6691,-6.6745,-6.6756,-6.6803,-6.6796,-6.6884,-6.6822,-6.6944,-6.6881,-6.6919,-6.6937,-6.6943,-6.6952,-6.6882,-6.6996,-6.7188,-6.7209,-6.696,-6.6957,-6.6955,0,-6.6301,-6.6422,-6.6527,-6.6558,-6.6626,-6.6675,-6.6705,-6.6756,-6.6801,-6.6862,-6.6891,-6.696,-6.6998,-6.7052,-6.7064,-6.7017,-6.7186,-6.7124,-6.7197,-6.7197,-6.7233,-6.7231,-6.7435,-6.7257,-6.7257,-6.7256,-6.7256,0,-6.6459,-6.655,-6.6578,-6.6643,-6.6745,-6.6754,-6.6854,-6.6881,-6.6926,-6.6995,-6.6981,-6.7046,-6.7057,-6.7124,-6.7133,-6.7233,-6.725,-6.7261,-6.7262,-6.7262,-6.7261,-6.7288,-6.7278,-6.7262,-6.7261,-6.726,-6.7259,0,-6.6599,-6.6621,-6.6735,-6.6791,-6.6807,-6.688,-6.6927,-6.6988,-6.7008,-6.7095,-6.7116,-6.7146,-6.7224,-6.7241,-6.7333,-6.7339,-6.7458,-6.7449,-6.744,-6.744,-6.7511,-6.7505,-6.774,-6.7772,-6.7573,-6.7574,-6.7576,0,-6.6699,-6.6769,-6.6834,-6.688,-6.6913,-6.6987,-6.7033,-6.7045,-6.7093,-6.7161,-6.7214,-6.7291,-6.7353,-6.7478,-6.7507,-6.7578,-6.7571,-6.7649,-6.7582,-6.758,-6.7573,-6.7569,-6.7576,-6.7662,-6.7664,-6.7666,-6.7667,0,-6.6874,-6.6882,-6.695,-6.7023,-6.7079,-6.7137,-6.7191,-6.7229,-6.7247,-6.7303,-6.7383,-6.7432,-6.7527,-6.7603,-6.7674,-6.7703,-6.7689,-6.7688,-6.7709,-6.771,-6.7702,-6.7708,-6.7476,-6.7683,-6.7681,-6.768,-6.7679,-6.7679,-6.6997,-6.706,-6.7115,-6.7192,-6.7234,-6.7286,-6.7347,-6.7375,-6.7443,-6.7523,-6.7524,-6.7612,-6.7664,-6.7758,-6.7792,-6.7861,-6.7836,-6.7866,-6.7873,-6.7881,-6.7888,-6.7691,-6.7873,-6.7873,-6.7872,-6.7872,-6.7872,0,-6.7172,-6.7207,-6.7278,-6.7356,-6.7416,-6.7399,-6.7458,-6.7509,-6.7588,-6.7639,-6.7701,-6.7793,-6.7868,-6.7903,-6.7977,-6.8024,-6.8019,-6.8043,-6.804,-6.8047,-6.7905,-6.788,-6.8046,-6.8046,-6.8046,-6.8046,-6.8046,-6.8046,-6.727,-6.7375,-6.739,-6.7515,-6.7549,-6.7637,-6.7672,-6.772,-6.776,-6.7865,-6.7928,-6.7951,-6.7996,-6.8072,-6.8139,-6.8148,-6.8175,-6.8203,-6.8208,-6.8075,-6.8057,-6.804,-6.8017,-6.8209,-6.8209,-6.8345,-6.8346,-6.8347]}]]